Weather History for Three Rivers, MI

Change the Weather History Date:

Monday, October 22, 2012

  Actual Average Record
Temperature  
Mean Temperature 56 °F -  
Max Temperature 67 °F 58 °F 82 °F (1953)
Min Temperature 44 °F 38 °F 25 °F (1967)
Degree Days  
Heating Degree Days 10    
Growing Degree Days 6 (Base 50)    
Moisture  
Dew Point 52 °F    
Average Humidity 84    
Maximum Humidity 94    
Minimum Humidity 62    
Precipitation  
Precipitation 0.00 in - - ()
Sea Level Pressure  
Sea Level Pressure 30.01 in    
Wind  
Wind Speed 2 mph (South)    
Max Wind Speed 14 mph    
Max Gust Speed 20 mph    
Visibility 8 miles    
Events Rain    
Averages and records for this station are not official NWS values.
T = Trace of Precipitation, MM = Missing Value Source: NWS Daily Summary

Daily Weather History Graph

Daily Weather History Graph

Search for Another Location

Airport:

Trip Planner

Search our weather history database for the weather conditions in past years. The results will help you decide how hot, cold, wet, or windy it might be!

Date:

Astronomy

Oct. 22, 2012 Rise Set
Actual Time 8:03 AM EDT 6:49 PM EDT
Civil Twilight 7:35 AM EDT 7:17 PM EDT
Nautical Twilight 7:02 AM EDT 7:50 PM EDT
Astronomical Twilight 6:30 AM EDT 8:22 PM EDT
Moon 3:03 PM EDT (10/22) 12:43 AM EDT (10/22)
Length of Visible Light 11h 42m
Length of Day
10h 45m
First Quarter, 56% of the Moon is Illuminated
Oct 22
First Quarter
Oct 29
Full
Nov 6
Last Quarter
Nov 13
New
Nov 20
First Quarter

Hourly Weather History & Observations

Time (EDT) Temp. Dew Point Humidity Pressure Visibility Wind Dir Wind Speed Gust Speed Precip Events Conditions
12:13 AM 46.2 °F 43.0 °F 88% 30.06 in 10.0 mi Calm Calm - N/A   Clear
12:34 AM 50.2 °F 47.1 °F 89% 30.05 in 10.0 mi SE 4.6 mph - N/A   Clear
12:54 AM 52.2 °F 46.6 °F 81% 30.05 in 10.0 mi SSE 3.5 mph - N/A   Clear
1:13 AM 51.4 °F 45.7 °F 81% 30.05 in 10.0 mi Calm Calm - N/A   Clear
1:53 AM 50.4 °F 45.5 °F 83% 30.04 in 10.0 mi South 3.5 mph - N/A   Clear
2:14 AM 50.4 °F 45.7 °F 84% 30.04 in 10.0 mi Calm Calm - N/A   Clear
2:34 AM 49.6 °F 45.3 °F 85% 30.04 in 10.0 mi Calm Calm - N/A   Clear
2:53 AM 49.5 °F 45.1 °F 85% 30.04 in 10.0 mi Calm Calm - N/A   Clear
3:14 AM 49.3 °F 45.3 °F 86% 30.04 in 10.0 mi Calm Calm - N/A   Clear
3:33 AM 46.9 °F 43.0 °F 86% 30.04 in 10.0 mi Calm Calm - N/A   Clear
3:54 AM 46.0 °F 43.2 °F 90% 30.04 in 7.0 mi Calm Calm - N/A   Clear
4:14 AM 45.9 °F 43.5 °F 92% 30.04 in 7.0 mi Calm Calm - N/A   Clear
4:54 AM 46.4 °F 44.1 °F 92% 30.04 in 7.0 mi Calm Calm - N/A   Clear
5:14 AM 45.5 °F 43.5 °F 93% 30.04 in 5.0 mi Calm Calm - N/A   Clear
5:33 AM 45.9 °F 43.9 °F 93% 30.04 in 7.0 mi Calm Calm - N/A   Clear
5:54 AM 46.9 °F 45.0 °F 93% 30.04 in 10.0 mi Calm Calm - N/A   Clear
6:14 AM 45.5 °F 43.5 °F 93% 30.04 in 7.0 mi Calm Calm - N/A   Clear
6:33 AM 44.6 °F 42.4 °F 92% 30.04 in 7.0 mi Calm Calm - N/A   Clear
6:54 AM 44.8 °F 43.0 °F 93% 30.04 in 4.0 mi Calm Calm - N/A   Clear
7:13 AM 45.3 °F 43.5 °F 93% 30.05 in 5.0 mi Calm Calm - N/A   Clear
7:34 AM 45.5 °F 43.7 °F 93% 30.04 in 4.0 mi Calm Calm - N/A   Clear
7:54 AM 45.0 °F 43.2 °F 93% 30.04 in 3.0 mi Calm Calm - N/A   Clear
8:13 AM 44.6 °F 42.8 °F 93% 30.05 in 3.0 mi Calm Calm - N/A   Clear
8:34 AM 45.7 °F 44.1 °F 94% 30.04 in 5.0 mi Calm Calm - N/A   Clear
8:54 AM 47.1 °F 45.3 °F 93% 30.05 in 5.0 mi Calm Calm - N/A   Clear
9:14 AM 49.8 °F 48.0 °F 94% 30.05 in 5.0 mi Calm Calm - N/A   Clear
9:34 AM 51.8 °F 49.6 °F 92% 30.06 in 7.0 mi Calm Calm - N/A   Mostly Cloudy
9:53 AM 54.3 °F 50.0 °F 85% 30.05 in 10.0 mi South 3.5 mph - N/A   Overcast
10:14 AM 56.1 °F 50.2 °F 80% 30.05 in 10.0 mi South 4.6 mph - N/A   Overcast
10:34 AM 57.7 °F 50.7 °F 77% 30.05 in 10.0 mi Calm Calm - N/A   Mostly Cloudy
10:53 AM 59.9 °F 51.3 °F 73% 30.05 in 10.0 mi SSE 3.5 mph - N/A   Scattered Clouds
11:14 AM 60.1 °F 51.6 °F 74% 30.05 in 10.0 mi South 5.8 mph - N/A   Mostly Cloudy
11:34 AM 62.4 °F 52.7 °F 70% 30.04 in 10.0 mi South 3.5 mph - N/A   Mostly Cloudy
11:53 AM 64.4 °F 52.9 °F 66% 30.04 in 10.0 mi South 5.8 mph - N/A   Scattered Clouds
12:14 PM 64.9 °F 53.2 °F 66% 30.04 in 10.0 mi South 4.6 mph - N/A   Clear
12:34 PM 66.0 °F 53.8 °F 65% 30.04 in 7.0 mi SSW 5.8 mph - N/A   Scattered Clouds
12:53 PM 66.7 °F 54.0 °F 63% 30.03 in 10.0 mi SSW 5.8 mph - N/A   Mostly Cloudy
1:14 PM 66.9 °F 54.0 °F 63% 30.02 in 10.0 mi South 6.9 mph - N/A   Overcast
1:33 PM 67.1 °F 54.7 °F 64% 30.02 in 10.0 mi South 6.9 mph - N/A   Overcast
1:54 PM 67.1 °F 54.3 °F 63% 30.02 in 10.0 mi South 9.2 mph - N/A   Overcast
2:14 PM 67.5 °F 54.5 °F 63% 30.01 in 10.0 mi South 6.9 mph - N/A   Overcast
2:33 PM 67.6 °F 54.3 °F 62% 30.00 in 10.0 mi SSW 5.8 mph - N/A   Mostly Cloudy
2:54 PM 63.0 °F 56.5 °F 79% 30.02 in 7.0 mi SSE 3.5 mph - N/A Rain Light Rain
3:14 PM 63.5 °F 58.1 °F 83% 30.01 in 7.0 mi Calm Calm - N/A   Scattered Clouds
3:33 PM 64.4 °F 57.6 °F 78% 29.99 in 5.0 mi SSE 5.8 mph - N/A   Haze
4:14 PM 64.4 °F 58.1 °F 80% 29.97 in 10.0 mi South 5.8 mph - N/A   Overcast
4:33 PM 64.4 °F 58.1 °F 80% 29.95 in 7.0 mi ESE 3.5 mph - N/A Rain Light Rain
4:54 PM 63.5 °F 59.0 °F 85% 29.97 in 7.0 mi NW 3.5 mph - N/A Rain Light Rain
5:14 PM 63.9 °F 59.2 °F 85% 29.98 in 10.0 mi West 4.6 mph - N/A   Mostly Cloudy
5:33 PM 63.5 °F 59.5 °F 87% 29.99 in 7.0 mi West 3.5 mph - N/A   Mostly Cloudy
5:54 PM 62.8 °F 59.4 °F 89% 30.00 in 5.0 mi WSW 4.6 mph - N/A Rain Light Rain
6:13 PM 63.5 °F 59.0 °F 85% 29.98 in 7.0 mi Calm Calm - N/A Rain Light Rain
6:34 PM 62.6 °F 59.0 °F 88% 29.96 in 7.0 mi Calm Calm - N/A   Overcast
6:54 PM 61.7 °F 58.8 °F 90% 29.98 in 5.0 mi Calm Calm - N/A Rain Light Rain
7:13 PM 60.8 °F 58.5 °F 92% 29.98 in 5.0 mi NE 3.5 mph - N/A   Overcast
7:34 PM 60.1 °F 57.9 °F 93% 29.97 in 4.0 mi East 4.6 mph - N/A   Overcast
8:14 PM 61.0 °F 59.0 °F 93% 29.96 in 7.0 mi Calm Calm - N/A   Mostly Cloudy
8:34 PM 61.3 °F 59.4 °F 93% 29.95 in 7.0 mi SSE 3.5 mph - N/A Rain Light Rain
8:53 PM 61.9 °F 59.5 °F 92% 29.94 in 10.0 mi SSE 5.8 mph - N/A   Overcast
9:14 PM 62.1 °F 59.4 °F 91% 29.94 in 10.0 mi South 6.9 mph - N/A   Overcast
9:34 PM 62.2 °F 59.4 °F 90% 29.93 in 10.0 mi South 8.1 mph - N/A   Drizzle
9:53 PM 62.6 °F 59.4 °F 89% 29.92 in 10.0 mi South 10.4 mph - N/A Rain Light Rain
10:14 PM 63.3 °F 59.4 °F 87% 29.92 in 10.0 mi South 10.4 mph - N/A Rain Light Rain
10:34 PM 63.5 °F 59.0 °F 85% 29.93 in 10.0 mi SSW 9.2 mph - N/A   Drizzle
10:53 PM 63.3 °F 59.0 °F 86% 29.92 in 10.0 mi South 9.2 mph - N/A Rain Light Rain
11:14 PM 63.7 °F 59.0 °F 85% 29.93 in 10.0 mi South 11.5 mph 19.6 mph N/A   Overcast
11:34 PM 64.4 °F 58.5 °F 81% 29.92 in 10.0 mi SSW 13.8 mph 17.3 mph N/A Rain Light Rain
11:53 PM 64.0 °F 58.8 °F 83% 29.97 in 5.0 mi North 11.5 mph 19.6 mph N/A Rain Heavy Rain